Location: Carabito
(9.8355°N, 67.9249°W)
Time: 12:24:38
(UTC+00:00)

SL-16 R/B - Pass Details

Date: 23 May 2024
Orbit: 985 x 1007 km, 99.7° (Epoch: 24 June)

Event Time Altitude Azimuth Distance (km) Brightness Sun altitude
Exits shadow 08:46:58 17° 293° (WNW) 2,329 4.1 -19.6°
Drops below altitude 10° 08:48:47 10° 308° (NW) 2,773 4.6 -19.2°
Sets 08:51:52 0° 322° (NW) 3,724 5.4 -18.5°
